Temperature
18 18 18 18 18 18 18 18 18 18 18 18 17 17 18 18 17 17 17 18 18 17 18 17 17 17 17 17 17 17 17 17 16 16 16 16 16 16 16 16 16 16 16
18 18 18 18 18 18 18 18 18 18 18 18 18 17 17 18 17 17 17 17 17 17 17 17 17 17 17 17 17 17 17 17 16 16 16 16 16 16 16 16 16 16 16
18 18 18 18 18 18 18 18 18 18 18 18 18 17 17 17 17 17 17 17 17 17 17 17 17 17 17 17 17 17 17 16 16 16 16 16 16 16 16 16 15 15 15
18 18 18 18 18 18 18 18 18 18 18 18 18 17 17 17 17 17 17 17 17 17 17 17 17 17 17 17 17 17 16 16 16 16 16 16 16 16 16 15 15 15 15
18 18 18 18 18 18 18 18 18 18 18 18 18 17 17 17 17 17 17 17 17 17 17 17 17 17 17 17 16 16 16 16 16 16 16 16 16 16 15 15 15 15 15
18 18 18 18 18 18 18 18 18 18 18 17 17 17 17 17 17 17 17 17 17 17 17 17 17 16 16 16 16 16 16 16 16 16 16 16 16 16 15 15 15 15 15
18 18 18 18 18 18 18 18 17 17 17 17 17 17 17 17 17 17 17 17 17 17 17 17 17 16 16 16 16 16 16 16 16 16 16 16 15 15 15 15 15 15 15
18 18 18 18 18 18 18 18 18 18 17 17 17 17 17 17 17 17 17 17 17 17 17 17 16 16 16 16 16 16 16 16 16 16 16 16 15 15 15 15 15 15 15
18 18 18 18 18 18 18 18 18 18 18 18 17 17 17 17 17 17 17 17 17 17 17 16 16 16 16 16 16 16 16 16 16 16 16 15 15 15 15 15 15 15 15
18 18 18 18 18 18 18 18 18 18 18 18 17 17 17 17 17 16 16 17 16 16 16 16 16 16 16 16 16 16 16 16 16 15 15 15 15 15 15 15 15 15 15
18 18 18 18 18 18 18 18 18 17 17 17 17 17 17 17 17 17 16 16 16 16 16 16 16 16 16 16 16 16 15 15 15 15 15 15 15 15 15 15 15 14 14
18 18 18 18 18 18 18 18 18 18 17 17 17 17 17 17 17 17 17 16 16 16 16 16 16 16 16 16 15 15 15 15 15 15 15 15 15 15 14 14 14 14 14
19 19 19 19 18 18 18 18 18 18 17 17 17 17 17 17 17 17 17 16 16 16 16 16 16 16 16 16 15 15 15 15 15 15 15 15 15 14 14 14 14 14 14
19 19 19 19 18 18 18 18 18 18 17 17 17 17 17 17 17 17 17 16 16 16 16 16 16 16 15 15 15 15 15 15 15 14 14 14 14 14 14 14 14 14 13
19 19 19 19 18 18 18 18 18 18 17 17 17 17 17 17 17 17 17 16 16 16 16 16 16 16 15 15 15 15 15 15 15 14 14 14 14 14 14 14 14 13 13
19 19 19 19 18 18 18 18 18 18 17 17 17 17 17 17 17 16 16 16 16 16 16 16 16 16 15 15 15 15 15 14 14 14 14 14 14 14 14 13 13 13 13
19 19 19 18 18 18 18 18 18 18 17 17 17 17 17 17 17 16 16 16 16 16 16 16 16 15 15 15 15 14 14 14 14 14 14 14 14 13 13 13 13 13 13
19 19 19 19 18 18 18 18 18 18 18 17 17 17 17 17 17 17 16 16 16 16 16 16 16 15 15 15 14 14 14 14 14 13 13 13 13 13 13 13 13 13 13
19 19 18 18 18 18 18 18 18 18 17 17 17 17 17 17 17 16 16 16 16 16 16 15 15 15 14 14 14 14 14 14 13 13 13 13 13 13 13 13 12 12 12
19 19 18 18 18 18 18 18 18 18 17 17 17 17 17 17 16 16 16 16 16 16 15 15 15 15 14 14 14 14 13 13 13 13 13 13 13 13 12 12 12 12 12
19 19 18 18 18 18 18 18 17 17 17 17 17 17 17 16 16 16 16 16 16 15 15 15 15 15 14 14 14 14 13 13 13 13 13 13 13 12 12 12 12 12 12
18 18 18 18 18 18 18 17 17 17 17 17 17 17 16 16 16 16 16 16 15 15 15 15 15 14 14 14 14 13 13 12 12 13 13 13 12 12 12 12 12 12 12
18 18 18 18 18 18 18 17 17 17 17 17 17 17 16 16 16 16 16 15 15 15 15 15 14 14 14 14 14 13 13 13 13 13 12 12 12 12 12 12 12 12 11
18 18 18 18 17 17 17 17 17 17 17 17 17 17 16 16 16 16 15 15 15 15 15 14 14 14 14 14 13 13 13 12 12 12 12 12 12 12 12 12 12 11 11
18 18 18 17 17 17 17 17 16 16 16 16 16 16 16 16 16 15 15 15 15 15 15 14 14 14 14 13 13 13 12 12 12 12 12 12 12 12 12 12 11 11 11
17 17 17 17 17 17 17 16 16 16 16 16 16 16 16 16 16 15 15 15 15 15 14 14 14 14 14 13 13 13 12 12 12 12 12 12 12 11 11 11 11 11 11
Wind_Speed
4 5 4 4 4 4 4 3 2 2 2 2 4 5 5 6 7 8 10 14 14 13 12 12 12 11 10 10 10 10 9 9 9 9 9 9 9 9 8 8 8 8 8
6 4 4 4 3 4 4 4 3 3 2 2 2 4 5 6 6 7 8 11 12 12 12 11 11 11 10 10 10 10 9 9 9 9 9 9 9 9 9 9 8 8 8
7 5 4 3 3 4 4 4 3 2 2 2 1 2 4 5 6 7 8 9 10 11 11 11 11 10 10 10 10 9 9 9 9 10 10 10 10 10 9 9 9 9 9
7 6 4 3 4 4 3 3 3 3 2 1 1 1 2 4 5 7 7 8 8 8 10 11 11 11 10 10 9 9 9 9 10 10 10 10 9 9 9 9 9 9 9
7 6 3 3 4 3 3 3 3 3 3 2 1 1 0 1 3 5 5 7 8 8 8 9 11 11 10 10 9 9 9 9 10 10 10 10 9 9 9 9 9 9 10
7 6 4 3 4 3 2 2 3 2 2 3 2 1 1 0 1 2 4 5 6 8 8 7 8 8 9 9 9 9 9 9 9 9 9 9 9 10 10 10 10 10 9
7 6 4 3 3 3 3 4 3 3 2 2 3 2 2 2 0 1 2 3 4 7 8 8 8 7 7 8 9 9 8 8 8 9 9 8 8 9 10 10 10 10 10
6 6 4 3 3 3 3 4 3 2 1 2 3 2 1 3 3 1 1 3 3 4 5 8 8 8 7 6 7 8 8 7 7 8 8 8 7 7 8 8 8 9 9
7 6 5 4 4 4 4 4 4 4 3 1 2 3 3 2 1 2 1 1 2 2 3 5 7 7 7 5 5 5 5 5 6 6 7 7 7 7 7 7 7 7 7
6 6 6 5 4 4 4 4 3 3 4 2 1 2 2 4 3 0 2 1 1 2 3 3 5 6 6 6 5 5 5 4 4 4 5 5 5 4 5 5 5 5 4
4 5 5 5 4 4 4 4 3 3 3 3 3 1 1 1 2 3 2 1 1 1 2 2 3 5 6 6 6 6 5 5 4 4 4 4 4 3 3 4 4 5 5
2 3 4 5 5 4 4 4 4 4 4 3 3 3 3 3 3 3 3 2 2 2 1 1 3 4 6 7 7 7 7 6 5 4 4 4 3 3 3 3 3 4 4
3 4 4 4 3 4 5 4 4 4 4 4 4 3 3 3 3 3 3 2 2 1 1 1 2 5 6 7 7 8 7 6 6 5 4 4 4 3 3 3 3 3 2
4 5 4 4 4 5 5 4 4 4 4 4 4 4 3 3 3 4 4 4 2 1 1 2 1 3 5 8 9 9 8 8 7 6 5 5 4 4 4 3 3 3 3
4 5 5 5 4 4 4 4 3 4 3 4 4 4 3 3 3 3 4 5 5 3 4 3 2 3 5 7 8 8 8 9 9 8 7 6 5 5 5 4 4 3 3
4 4 4 4 4 4 4 3 3 3 3 3 3 3 3 2 2 3 3 3 4 4 4 3 3 3 4 5 7 7 8 9 10 9 9 8 7 6 6 6 5 4 4
5 5 5 5 5 4 4 4 4 4 4 3 3 4 4 3 2 3 3 3 3 3 3 3 2 2 2 3 4 5 6 6 7 10 10 9 8 8 7 7 6 5 5
5 5 4 5 5 5 4 5 5 5 5 5 4 4 4 3 3 3 3 3 3 3 3 3 2 1 2 4 4 4 4 4 5 8 10 10 10 9 9 8 8 7 7
5 5 5 5 5 5 5 5 5 5 5 5 5 5 4 4 4 3 3 3 3 3 3 3 3 2 1 2 2 2 3 3 5 6 9 10 11 10 10 10 9 9 8
5 5 5 6 6 5 5 5 5 5 5 4 4 4 4 5 5 4 4 4 3 3 3 3 3 2 2 1 2 2 2 3 3 4 6 8 9 10 11 11 11 10 10
6 5 5 5 5 5 5 6 5 5 5 4 3 3 4 5 5 5 4 4 5 3 3 3 3 2 2 3 4 3 4 3 3 3 3 4 5 6 8 11 12 12 12
5 5 4 4 4 4 5 7 6 5 4 4 4 3 3 4 5 5 6 7 7 6 6 5 4 5 5 5 4 4 3 2 3 3 3 4 4 5 7 10 13 13 13
5 5 5 5 5 6 7 8 9 6 5 6 6 5 4 4 4 3 5 6 6 8 9 7 7 7 7 7 6 5 5 5 5 4 3 4 3 5 7 11 14 15 15
5 5 5 6 6 7 8 8 9 6 6 6 6 6 6 5 5 5 4 3 4 5 7 7 8 8 7 7 7 7 7 5 3 2 4 4 4 5 6 8 13 15 16
5 5 4 5 6 6 8 8 7 4 5 5 5 5 6 6 7 7 5 5 4 5 6 8 9 8 9 10 8 4 3 3 3 4 3 4 3 3 3 5 9 13 15
5 4 4 5 5 5 6 7 7 4 4 4 4 4 7 8 8 9 7 6 7 6 4 3 4 5 6 7 10 8 7 5 3 3 4 4 3 2 2 3 4 7 10
Wind_Direction
146 152 156 164 172 173 168 163 168 172 172 176 171 154 149 155 159 167 174 175 174 173 175 178 178 179 184 187 189 192 194 197 198 200 201 202 203 204 204 205 206 207 205
151 150 150 159 172 182 183 179 171 155 145 129 117 135 149 154 151 157 167 172 173 177 180 183 184 187 191 194 195 197 198 200 202 204 205 207 207 207 206 208 208 207 208
153 149 145 156 173 176 171 167 160 142 139 123 114 125 142 150 157 163 166 169 176 183 187 189 191 193 194 195 197 200 202 204 206 207 207 209 210 211 212 211 212 212 213
154 146 146 160 174 166 159 147 142 128 125 123 117 106 130 150 164 170 169 169 173 181 191 197 197 198 200 202 204 203 206 209 209 209 208 210 212 213 216 219 219 218 219
158 150 149 164 163 143 142 155 140 138 138 135 137 130 125 149 166 174 169 173 178 182 187 198 203 203 205 210 212 211 213 215 213 212 210 211 215 216 217 220 225 225 225
163 155 154 161 148 132 131 134 139 142 147 152 129 92 23 291 156 172 182 176 183 186 188 192 197 201 207 211 215 216 220 218 212 209 208 212 218 220 220 222 227 228 228
162 155 150 149 141 143 153 149 141 137 132 119 93 48 8 357 358 221 181 171 175 184 185 188 188 194 205 218 220 219 225 220 214 211 211 214 221 226 224 227 231 233 230
163 163 156 159 153 148 147 148 143 137 155 142 133 115 30 359 359 354 161 176 184 177 179 185 187 192 199 206 214 218 225 221 208 202 203 208 214 220 224 228 231 234 233
169 166 163 160 159 158 168 173 161 157 174 196 165 155 158 205 297 346 331 151 169 168 175 171 180 186 188 185 188 196 196 198 197 200 205 211 215 221 224 227 231 234 232
174 173 172 166 167 163 168 182 167 163 159 182 216 202 181 166 164 199 336 341 152 175 183 176 167 170 174 173 173 173 177 184 187 193 197 195 196 207 220 220 220 222 223
183 180 176 174 173 169 174 180 170 167 168 178 189 186 148 140 145 157 202 275 331 263 205 184 167 171 174 173 174 178 180 184 181 185 187 189 197 199 202 211 219 220 217
196 190 175 175 176 175 182 185 185 179 186 188 193 183 172 171 183 168 186 204 225 253 231 207 178 176 179 180 183 182 184 183 185 187 195 198 203 202 201 207 215 220 219
194 202 187 177 180 187 189 187 188 194 192 192 200 202 199 201 178 163 160 176 200 239 223 233 200 183 187 185 188 188 185 183 184 184 195 201 204 209 212 215 220 226 228
198 192 185 187 192 194 195 188 195 208 202 204 211 205 207 216 189 174 168 160 168 237 234 234 227 193 191 186 190 188 188 189 188 189 198 202 205 208 213 220 226 223 232
196 187 186 189 193 193 192 186 201 211 203 205 209 207 210 222 206 197 176 165 165 196 228 221 209 202 187 184 187 184 187 195 195 196 200 203 207 211 214 212 213 209 208
187 178 186 189 195 197 195 192 204 213 202 211 207 205 216 223 210 197 187 183 175 177 211 220 212 205 183 184 190 187 195 201 203 203 205 206 212 216 215 210 208 203 199
188 187 191 193 199 207 208 201 211 207 205 217 216 205 215 201 198 196 186 186 185 168 201 239 217 183 172 181 178 189 198 201 208 212 211 212 214 215 215 213 207 205 203
196 195 191 193 202 208 209 207 216 215 209 214 217 208 217 208 205 203 194 197 197 183 182 214 226 189 198 191 185 192 199 215 220 222 219 219 217 217 215 212 209 206 207
192 194 191 199 207 210 211 214 213 212 209 213 212 210 216 197 209 210 200 198 204 197 182 184 209 210 203 183 173 213 216 217 227 226 224 226 223 222 220 218 216 213 214
194 200 205 208 210 213 213 213 206 204 205 209 208 208 206 198 201 197 197 192 184 175 171 173 188 196 193 194 167 201 232 235 237 226 227 228 229 230 229 228 226 223 221
200 199 203 211 212 211 212 203 201 200 200 206 208 207 207 203 199 195 195 188 177 179 177 183 196 203 205 191 207 204 222 239 251 225 224 231 225 231 232 232 232 230 225
201 191 197 204 214 225 214 199 194 198 196 195 205 216 213 205 206 203 202 196 185 186 192 198 210 215 221 214 208 205 206 211 251 232 206 240 213 234 235 230 231 230 227
202 201 206 211 220 229 214 203 199 197 202 206 206 209 220 217 203 201 205 203 207 205 197 196 209 220 215 209 197 207 209 212 230 220 197 245 230 237 237 237 233 232 231
205 211 214 220 225 234 221 214 207 205 210 215 213 209 210 217 214 194 197 212 228 229 221 214 216 222 220 209 200 205 211 222 248 228 184 223 233 238 242 234 235 232 233
207 213 215 217 227 237 224 217 206 207 214 221 221 215 209 215 217 195 192 211 235 252 249 230 221 219 217 211 198 186 194 201 244 247 209 204 220 234 243 244 236 232 231
209 213 222 223 223 227 222 215 205 204 208 221 229 228 220 214 215 201 199 206 225 242 241 247 242 237 227 220 204 197 198 206 223 239 214 194 208 183 250 255 236 229 230
Height
1541 1543 1544 1545 1547 1548 1549 1551 1552 1553 1554 1556 1557 1558 1558 1559 1560 1561 1561 1562 1563 1564 1565 1565 1566 1567 1568 1568 1569 1570 1570 1571 1572 1572 1573 1573 1574 1574 1575 1575 1575 1576 1576
1542 1544 1545 1547 1548 1550 1551 1552 1553 1554 1555 1556 1557 1558 1559 1560 1561 1561 1562 1562 1563 1564 1565 1565 1566 1567 1567 1568 1568 1569 1570 1570 1571 1571 1571 1572 1572 1573 1573 1574 1574 1574 1575
1544 1545 1546 1548 1549 1551 1552 1553 1554 1555 1556 1557 1558 1559 1560 1560 1561 1562 1562 1563 1563 1564 1565 1565 1566 1566 1567 1567 1568 1568 1569 1569 1569 1569 1570 1570 1571 1571 1572 1572 1572 1573 1573
1545 1546 1547 1549 1550 1551 1553 1554 1555 1556 1557 1558 1558 1559 1560 1561 1561 1562 1562 1563 1563 1564 1564 1565 1565 1566 1566 1566 1567 1567 1567 1567 1567 1567 1568 1568 1569 1569 1570 1570 1571 1571 1571
1545 1547 1548 1549 1550 1552 1553 1554 1555 1556 1557 1558 1559 1559 1560 1560 1561 1561 1562 1562 1563 1563 1564 1564 1565 1565 1565 1565 1565 1565 1565 1565 1566 1566 1566 1566 1567 1567 1568 1568 1568 1569 1569
1546 1547 1548 1549 1551 1552 1553 1554 1555 1556 1557 1558 1558 1559 1560 1560 1560 1560 1561 1561 1562 1562 1563 1563 1564 1564 1564 1564 1564 1564 1564 1563 1564 1564 1564 1564 1565 1565 1565 1566 1566 1566 1567
1545 1547 1548 1549 1551 1552 1553 1554 1554 1555 1556 1557 1558 1558 1559 1559 1559 1559 1560 1560 1561 1562 1562 1562 1562 1562 1562 1562 1562 1562 1562 1562 1562 1562 1562 1562 1562 1563 1563 1563 1563 1563 1564
1545 1547 1548 1549 1550 1551 1552 1553 1554 1554 1555 1556 1557 1557 1558 1559 1558 1558 1559 1559 1560 1560 1561 1561 1561 1561 1561 1561 1561 1561 1560 1560 1560 1559 1560 1560 1560 1560 1560 1560 1560 1560 1561
1545 1546 1548 1549 1550 1551 1551 1552 1553 1554 1554 1555 1556 1557 1557 1557 1557 1558 1558 1558 1559 1559 1560 1560 1560 1560 1560 1559 1559 1559 1559 1558 1558 1558 1557 1557 1557 1557 1557 1557 1557 1557 1557
1545 1546 1547 1548 1549 1550 1550 1551 1552 1553 1553 1554 1555 1555 1556 1556 1556 1556 1557 1557 1558 1558 1558 1558 1558 1558 1558 1558 1558 1558 1558 1557 1556 1556 1556 1555 1555 1555 1555 1555 1555 1555 1554
1544 1545 1546 1547 1548 1548 1549 1550 1550 1551 1552 1552 1553 1553 1554 1554 1554 1554 1555 1556 1556 1556 1556 1557 1557 1557 1557 1557 1556 1556 1556 1556 1555 1554 1554 1553 1553 1553 1552 1552 1552 1552 1552
1543 1544 1545 1545 1546 1547 1547 1548 1549 1549 1550 1550 1551 1551 1552 1552 1552 1552 1552 1553 1554 1554 1555 1555 1555 1555 1555 1555 1555 1555 1554 1554 1553 1553 1552 1551 1551 1551 1550 1550 1550 1550 1550
1542 1543 1543 1544 1545 1545 1546 1546 1547 1547 1548 1548 1549 1549 1550 1550 1550 1551 1551 1551 1552 1553 1553 1553 1553 1554 1554 1554 1554 1553 1553 1552 1552 1551 1550 1550 1549 1549 1548 1548 1548 1548 1547
1541 1542 1542 1543 1543 1544 1544 1544 1545 1545 1546 1546 1547 1547 1547 1548 1548 1549 1549 1550 1550 1550 1550 1551 1551 1551 1552 1552 1552 1552 1551 1551 1550 1549 1549 1548 1548 1547 1547 1546 1546 1546 1545
1539 1540 1541 1541 1542 1542 1542 1542 1542 1543 1543 1544 1545 1545 1545 1545 1546 1546 1547 1547 1548 1547 1547 1548 1548 1549 1549 1549 1549 1549 1549 1549 1548 1548 1547 1547 1546 1545 1545 1544 1544 1544 1543
1537 1538 1539 1539 1540 1540 1540 1540 1540 1541 1541 1542 1542 1543 1543 1543 1543 1543 1544 1545 1545 1546 1545 1545 1545 1546 1546 1546 1547 1547 1546 1546 1546 1546 1545 1545 1544 1543 1543 1542 1542 1542 1541
1535 1536 1536 1537 1537 1538 1538 1538 1538 1539 1539 1539 1540 1540 1540 1540 1540 1540 1541 1542 1542 1543 1542 1542 1543 1543 1543 1544 1544 1544 1544 1543 1543 1543 1543 1542 1542 1542 1541 1540 1540 1540 1539
1532 1533 1534 1534 1534 1535 1535 1536 1536 1536 1536 1536 1537 1537 1537 1537 1537 1538 1538 1538 1539 1540 1540 1539 1539 1540 1540 1541 1541 1541 1541 1540 1540 1540 1540 1540 1540 1539 1539 1538 1538 1537 1537
1530 1530 1531 1531 1532 1532 1532 1532 1533 1533 1533 1534 1534 1534 1534 1535 1534 1535 1535 1535 1536 1536 1537 1536 1536 1536 1537 1537 1537 1537 1537 1537 1537 1537 1537 1537 1537 1536 1536 1536 1536 1535 1535
1526 1527 1528 1528 1528 1529 1529 1529 1529 1530 1530 1531 1531 1531 1531 1531 1531 1532 1532 1532 1533 1533 1533 1533 1532 1532 1533 1533 1533 1533 1532 1533 1533 1533 1533 1533 1533 1533 1533 1533 1533 1533 1532
1523 1524 1524 1525 1525 1525 1526 1526 1526 1526 1527 1527 1528 1528 1528 1528 1529 1529 1529 1529 1529 1530 1529 1529 1529 1529 1529 1529 1529 1529 1529 1529 1529 1530 1530 1530 1530 1530 1530 1530 1530 1530 1530
1520 1520 1521 1521 1522 1522 1522 1523 1523 1523 1523 1524 1524 1524 1525 1525 1525 1525 1525 1526 1526 1526 1525 1525 1525 1525 1525 1525 1525 1525 1525 1525 1525 1526 1526 1526 1526 1526 1526 1526 1526 1526 1526
1516 1516 1517 1518 1518 1518 1519 1519 1519 1520 1519 1520 1520 1520 1520 1520 1521 1521 1521 1521 1522 1522 1522 1522 1521 1520 1521 1521 1522 1522 1521 1521 1521 1522 1523 1522 1522 1522 1522 1522 1522 1523 1523
1512 1513 1513 1514 1514 1514 1514 1514 1514 1514 1515 1515 1516 1516 1516 1516 1516 1517 1517 1517 1517 1517 1517 1517 1517 1517 1517 1518 1518 1518 1518 1518 1518 1518 1519 1518 1517 1518 1518 1518 1518 1519 1519
1508 1509 1509 1509 1509 1509 1510 1509 1510 1510 1510 1510 1511 1512 1512 1512 1512 1513 1513 1513 1513 1513 1513 1513 1513 1513 1513 1513 1514 1514 1514 1514 1513 1513 1514 1514 1513 1513 1513 1513 1514 1514 1514
1504 1505 1505 1505 1504 1504 1505 1505 1505 1504 1504 1505 1506 1507 1507 1507 1507 1508 1508 1508 1508 1508 1508 1508 1508 1508 1508 1508 1509 1509 1509 1509 1508 1508 1509 1509 1508 1509 1508 1508 1509 1509 1510